Rbgn^[z[y[W
メイン
   新天体発見情報
     Comet C/2018 V2 (ATLAS)
投稿するにはまず登録を

スレッド表示 | 新しいものから 前のトピック | 次のトピック | 下へ
投稿者 スレッド
佐藤裕久
投稿日時: 2018-12-12 1:12
モデレータ
登録日: 2005-6-12
居住地: 日本
投稿: 2505
オンライン
Comet C/2018 V2 (ATLAS)

11月2日UT、ハワイ Mauna Loaにある小惑星地球衝突最終警報システム Asteroid Terrestrial-impact 
Last Alert System (ATLAS)調査プログラムのコースに0.5-m f/2 Schmidt反射望遠鏡で外見上の小惑星
状天体が発見された。
小惑星センターのPCCP webpageに公表後、K. SarneczkyとA. Ordasi (Konkoly天文台:11月5.9 日UT、Piszkesteto観測所の0.60-m Schmid望遠鏡で得た60秒フィルターなしCCD画像の15枚スタックから、恒星
状の核状の集光で非常にかすかな5" のコマがあり北に非対称であったらCCD観測者によって彗星状と観
測された。

発見位置は次のとおり、

     2018 UT             R.A. (2000) Decl.       Mag.
     Nov.  2.52670    3 30 49.17   - 7 31 48.5   19.1
           2.53671    3 30 46.19   - 7 31 57.6   19.0
           2.54109    3 30 45.09   - 7 32 02.6   19.1
           2.54679    3 30 43.59   - 7 32 08.1   19.1

暫定放物線軌道要素と位置推算表は次のとおり、

Orbital elements:
    C/2018 V2 (ATLAS)
Epoch 2018 Nov. 18.0 TT = JDT 2458440.5
T 2018 Nov. 26.97813 TT                                 MPCW
q   2.4749820            (2000.0)            P               Q
n   0.00757477     Peri.  318.65921     +0.78420097     +0.62018505
a  25.6777156      Node   356.78714     +0.62038566     -0.78300432
e   0.9036136      Incl.  159.11096     +0.01226710     -0.04769421
P 130
From 146 observations 2018 Oct. 18-Nov. 29, mean residual 0".5.

    C/2018 V2 (ATLAS)
Epoch 2146 Jan. 11.0 TT = JDT 2504880.5
T 2146 Jan. 19.65077 TT                                 MPCW
q   2.4778734            (2000.0)            P               Q
n   0.00772784     Peri.  319.30288     +0.78354171     +0.62115171
a  25.3375218      Node   357.54734     +0.62113768     -0.78242572
e   0.9022054      Incl.  159.10541     +0.01582294     -0.04450332
P 128
From 146 observations 2018 Oct. 18-Nov. 29, mean residual 0".5.

    C/2018 V2 (ATLAS)
Epoch 2019 Apr. 27.0 TT = JDT 2458600.5
T 2018 Nov. 26.96113 TT                                 MPCW
q   2.4749494            (2000.0)            P               Q
n   0.00759036     Peri.  318.65500     +0.78414748     +0.62025280
a  25.6425437      Node   356.78790     +0.62045335     -0.78295175
e   0.9034827      Incl.  159.10990     +0.01226262     -0.04767621
P 130
From 146 observations 2018 Oct. 18-Nov. 29, mean residual 0".5.

Ephemeris:
    C/2018 V2 (ATLAS)
Date    TT    R. A. (2000) Decl.     Delta      r     Elong.  Phase   m1
2018 11 01    03 37 47.8 -07 09 18   1.5705  2.4897   151.8    10.9  19.4
...
2018 11 16    02 27 42.6 -10 05 36   1.5819  2.4776   148.2    12.2  19.4
...
2018 11 24    01 53 12.3 -10 48 32   1.6649  2.4752   136.4    16.0  19.5
...
2018 11 30    01 30 37.1 -10 58 11   1.7558  2.4752   126.7    18.6  19.7
2018 12 01    01 27 10.0 -10 58 11   1.7730  2.4753   125.1    19.0  19.7
2018 12 02    01 23 48.4 -10 57 47   1.7906  2.4755   123.5    19.4  19.7
...
2018 12 08    01 05 33.4 -10 47 51   1.9059  2.4776   114.1    21.3  19.8
...
2018 12 16    00 46 03.4 -10 19 24   2.0786  2.4829   102.4    22.8  20.0
...
2018 12 31    00 21 41.6 -09 00 40   2.4304  2.5001    82.5    23.0  20.4

(CBET 4578、MPEC 2018-X10)


スレッド表示 | 新しいものから 前のトピック | 次のトピック | トップ

投稿するにはまず登録を
 
© 1999 Tsutomu Seki.